FLI9464 EKVG-BIAR

Flight info

Callsign FLI9464
Flight time 1h 5m
Altitude 34000
Route MY DCT PEXIL PEXIL1N
Aircraft A320/M-SDE3FGHIRWY/LB1

Departure

Time 2026-04-27 13:48
Airport Vágar Airport (EKVG)

Arrival

Time 2026-04-27 14:54
Airport Akureyri International Airport (BIAR)
Time Latitude Longitude Altitude Speed Heading
2026-04-27 13:23 62.06687 -7.27944 279 ft 0 kts 28°
2026-04-27 13:40 62.06683 -7.27948 279 ft 3 kts 29°
2026-04-27 13:40 62.06666 -7.27979 282 ft 4 kts 83°
2026-04-27 13:41 62.06667 -7.28027 282 ft 4 kts 103°
2026-04-27 13:41 62.06676 -7.28082 286 ft 4 kts 116°
2026-04-27 13:41 62.06689 -7.28131 287 ft 4 kts 126°
2026-04-27 13:41 62.06705 -7.28177 283 ft 3 kts 125°
2026-04-27 13:42 62.06708 -7.28185 284 ft 0 kts 124°
2026-04-27 13:44 62.06691 -7.28141 287 ft 8 kts 133°
2026-04-27 13:44 62.06637 -7.28095 279 ft 12 kts 174°
2026-04-27 13:45 62.06534 -7.28119 281 ft 14 kts 201°
2026-04-27 13:45 62.06456 -7.28105 284 ft 13 kts 128°
2026-04-27 13:45 62.06408 -7.27917 286 ft 17 kts 117°
2026-04-27 13:45 62.06340 -7.27652 286 ft 24 kts 118°
2026-04-27 13:46 62.06248 -7.27281 282 ft 32 kts 118°
2026-04-27 13:46 62.06136 -7.26829 267 ft 34 kts 118°
2026-04-27 13:46 62.06028 -7.26393 251 ft 30 kts 117°
2026-04-27 13:46 62.05970 -7.26157 243 ft 12 kts 118°
2026-04-27 13:47 62.05929 -7.26042 241 ft 6 kts 128°
2026-04-27 13:47 62.05952 -7.26038 241 ft 9 kts 299°
2026-04-27 13:47 62.05971 -7.26159 243 ft 0 kts 298°
2026-04-27 13:48 62.06006 -7.26297 248 ft 43 kts 298°
2026-04-27 13:48 62.06277 -7.27390 286 ft 121 kts 298°
2026-04-27 13:48 62.06762 -7.29360 449 ft 167 kts 297°
2026-04-27 13:48 62.07247 -7.31645 1228 ft 171 kts 291°
2026-04-27 13:49 62.07663 -7.34002 2146 ft 168 kts 285°
2026-04-27 13:49 62.07889 -7.36414 2741 ft 168 kts 279°
2026-04-27 13:49 62.08127 -7.38960 3054 ft 185 kts 279°
2026-04-27 13:49 62.08405 -7.41760 3423 ft 197 kts 279°
2026-04-27 13:50 62.08693 -7.44642 3915 ft 205 kts 280°
2026-04-27 13:50 62.09111 -7.47806 3993 ft 240 kts 292°
2026-04-27 13:50 62.09931 -7.51037 4011 ft 251 kts 292°
2026-04-27 13:50 62.10512 -7.54538 4008 ft 251 kts 283°
2026-04-27 13:51 62.11000 -7.58085 4083 ft 255 kts 289°
2026-04-27 13:51 62.11858 -7.61417 4943 ft 259 kts 303°
2026-04-27 13:51 62.12951 -7.64495 5841 ft 261 kts 306°
2026-04-27 13:51 62.14098 -7.67512 6759 ft 263 kts 308°
2026-04-27 13:52 62.15273 -7.70527 7602 ft 265 kts 308°
2026-04-27 13:52 62.16466 -7.73555 8417 ft 268 kts 308°
2026-04-27 13:52 62.17672 -7.76616 9240 ft 271 kts 308°
2026-04-27 13:52 62.18895 -7.79724 10048 ft 275 kts 308°
2026-04-27 13:53 62.21457 -7.86276 10881 ft 308 kts 308°
2026-04-27 13:53 62.22873 -7.89915 11164 ft 326 kts 308°
2026-04-27 13:53 62.24343 -7.93696 11780 ft 332 kts 308°
2026-04-27 13:54 62.25829 -7.97524 12500 ft 335 kts 308°
2026-04-27 13:54 62.27327 -8.01401 13230 ft 338 kts 309°
2026-04-27 13:54 62.28829 -8.05290 13951 ft 341 kts 309°
2026-04-27 13:54 62.30352 -8.09224 14611 ft 343 kts 309°
2026-04-27 13:55 62.31881 -8.13193 15236 ft 346 kts 308°
2026-04-27 13:55 62.33418 -8.17195 15863 ft 348 kts 308°
2026-04-27 13:55 62.34962 -8.21235 16474 ft 351 kts 308°
2026-04-27 13:55 62.36518 -8.25301 17104 ft 353 kts 308°
2026-04-27 13:56 62.38088 -8.29402 17722 ft 355 kts 308°
2026-04-27 13:56 62.39664 -8.33532 18337 ft 358 kts 308°
2026-04-27 13:56 62.41248 -8.37687 18892 ft 361 kts 308°
2026-04-27 13:56 62.42847 -8.41900 19414 ft 363 kts 308°
2026-04-27 13:57 62.44448 -8.46124 19949 ft 365 kts 308°
2026-04-27 13:57 62.46066 -8.50401 20480 ft 368 kts 308°
2026-04-27 13:57 62.47685 -8.54694 20998 ft 371 kts 308°
2026-04-27 13:57 62.49322 -8.59039 21518 ft 373 kts 308°
2026-04-27 13:58 62.50967 -8.63411 22024 ft 376 kts 308°
2026-04-27 13:58 62.52621 -8.67818 22519 ft 378 kts 308°
2026-04-27 13:58 62.54283 -8.72257 23004 ft 381 kts 309°
2026-04-27 13:58 62.55958 -8.76731 23491 ft 383 kts 308°
2026-04-27 13:59 62.57620 -8.81188 23941 ft 386 kts 308°
2026-04-27 13:59 62.59312 -8.85730 24321 ft 388 kts 308°
2026-04-27 13:59 62.61011 -8.90300 24687 ft 389 kts 308°
2026-04-27 13:59 62.62713 -8.94882 25086 ft 391 kts 308°
2026-04-27 14:00 62.64425 -8.99489 25460 ft 392 kts 308°
2026-04-27 14:00 62.66135 -9.04111 25837 ft 393 kts 308°
2026-04-27 14:00 62.67850 -9.08763 26208 ft 394 kts 308°
2026-04-27 14:00 62.69566 -9.13430 26570 ft 396 kts 308°
2026-04-27 14:01 62.71289 -9.18120 26917 ft 397 kts 308°
2026-04-27 14:01 62.73018 -9.22826 27261 ft 399 kts 308°
2026-04-27 14:01 62.74750 -9.27557 27598 ft 400 kts 308°
2026-04-27 14:01 62.76488 -9.32315 27934 ft 401 kts 308°
2026-04-27 14:02 62.78229 -9.37093 28262 ft 403 kts 308°
2026-04-27 14:02 62.79974 -9.41900 28583 ft 404 kts 308°
2026-04-27 14:02 62.81724 -9.46724 28907 ft 406 kts 307°
2026-04-27 14:02 62.83479 -9.51564 29206 ft 407 kts 307°
2026-04-27 14:03 62.85238 -9.56428 29494 ft 408 kts 307°
2026-04-27 14:03 62.87001 -9.61318 29763 ft 410 kts 307°
2026-04-27 14:03 62.88769 -9.66229 30025 ft 411 kts 307°
2026-04-27 14:03 62.90544 -9.71169 30285 ft 412 kts 307°
2026-04-27 14:04 62.92316 -9.76117 30483 ft 413 kts 307°
2026-04-27 14:04 62.94094 -9.81094 30662 ft 415 kts 307°
2026-04-27 14:04 62.95879 -9.86093 30918 ft 415 kts 307°
2026-04-27 14:04 62.97651 -9.91073 31206 ft 413 kts 306°
2026-04-27 14:05 62.99413 -9.96053 31494 ft 412 kts 306°
2026-04-27 14:05 63.01166 -10.01020 31792 ft 410 kts 306°
2026-04-27 14:05 63.02913 -10.05967 32082 ft 409 kts 306°
2026-04-27 14:05 63.04654 -10.10906 32384 ft 407 kts 306°
2026-04-27 14:06 63.06385 -10.15827 32684 ft 406 kts 306°
2026-04-27 14:06 63.08108 -10.20736 33007 ft 404 kts 306°
2026-04-27 14:06 63.09801 -10.25565 33303 ft 402 kts 306°
2026-04-27 14:06 63.11510 -10.30454 33602 ft 401 kts 305°
2026-04-27 14:07 63.13207 -10.35324 33902 ft 399 kts 305°
2026-04-27 14:07 63.14901 -10.40195 34188 ft 398 kts 305°
2026-04-27 14:07 63.16581 -10.45031 34265 ft 396 kts 305°
2026-04-27 14:08 63.19921 -10.54666 34274 ft 393 kts 305°
2026-04-27 14:08 63.23244 -10.64305 34268 ft 393 kts 305°
2026-04-27 14:09 63.26568 -10.73984 34263 ft 396 kts 304°
2026-04-27 14:09 63.29903 -10.83725 34261 ft 397 kts 304°
2026-04-27 14:10 63.33238 -10.93510 34288 ft 397 kts 304°
2026-04-27 14:10 63.36563 -11.03338 34281 ft 397 kts 303°
2026-04-27 14:11 63.39853 -11.13106 34262 ft 397 kts 303°
2026-04-27 14:11 63.43162 -11.22964 34254 ft 396 kts 303°
2026-04-27 14:12 63.46469 -11.32850 34251 ft 396 kts 303°
2026-04-27 14:12 63.49767 -11.42748 34243 ft 397 kts 303°
2026-04-27 14:13 63.53062 -11.52658 34233 ft 397 kts 303°
2026-04-27 14:13 63.56343 -11.62595 34222 ft 397 kts 303°
2026-04-27 14:14 63.59617 -11.72577 34243 ft 398 kts 302°
2026-04-27 14:14 63.62904 -11.82614 34227 ft 398 kts 302°
2026-04-27 14:15 63.66177 -11.92669 34222 ft 398 kts 302°
2026-04-27 14:15 63.68890 -12.01041 34224 ft 398 kts 302°
2026-04-27 14:16 63.72158 -12.11133 34223 ft 399 kts 302°
2026-04-27 14:16 63.75424 -12.21264 34200 ft 399 kts 302°
2026-04-27 14:17 63.78673 -12.31418 34198 ft 399 kts 302°
2026-04-27 14:17 63.81914 -12.41603 34196 ft 399 kts 302°
2026-04-27 14:18 63.85156 -12.51809 34217 ft 398 kts 301°
2026-04-27 14:18 63.88385 -12.62038 34213 ft 399 kts 300°
2026-04-27 14:19 63.91615 -12.72337 34199 ft 400 kts 300°
2026-04-27 14:19 63.94832 -12.82626 34177 ft 399 kts 300°
2026-04-27 14:20 63.98045 -12.92917 34177 ft 399 kts 300°
2026-04-27 14:20 64.01254 -13.03235 34164 ft 399 kts 300°
2026-04-27 14:21 64.04449 -13.13500 34158 ft 400 kts 300°
2026-04-27 14:21 64.07647 -13.23875 34160 ft 401 kts 302°
2026-04-27 14:22 64.11312 -13.33616 34160 ft 404 kts 306°
2026-04-27 14:22 64.15081 -13.43183 34144 ft 404 kts 306°
2026-04-27 14:23 64.18842 -13.52782 34146 ft 404 kts 306°
2026-04-27 14:23 64.22582 -13.62435 34123 ft 405 kts 306°
2026-04-27 14:24 64.26324 -13.72146 34120 ft 406 kts 306°
2026-04-27 14:24 64.30068 -13.81909 34118 ft 407 kts 306°
2026-04-27 14:25 64.33814 -13.91728 34161 ft 408 kts 304°
2026-04-27 14:25 64.37557 -14.01570 34151 ft 408 kts 304°
2026-04-27 14:26 64.41291 -14.11431 34140 ft 408 kts 304°
2026-04-27 14:26 64.45019 -14.21318 34124 ft 408 kts 304°
2026-04-27 14:27 64.48720 -14.31180 34116 ft 408 kts 304°
2026-04-27 14:27 64.52436 -14.41128 34115 ft 408 kts 304°
2026-04-27 14:28 64.56154 -14.51104 34107 ft 408 kts 304°
2026-04-27 14:28 64.59857 -14.61108 34124 ft 407 kts 304°
2026-04-27 14:29 64.63548 -14.71132 34106 ft 409 kts 303°
2026-04-27 14:29 64.67242 -14.81222 34091 ft 410 kts 303°
2026-04-27 14:30 64.70943 -14.91367 34078 ft 410 kts 303°
2026-04-27 14:30 64.74653 -15.01555 34067 ft 411 kts 303°
2026-04-27 14:31 64.78355 -15.11770 34066 ft 411 kts 303°
2026-04-27 14:31 64.82048 -15.22047 34065 ft 411 kts 302°
2026-04-27 14:31 64.83888 -15.27187 33886 ft 412 kts 303°
2026-04-27 14:32 64.85729 -15.32326 33605 ft 410 kts 303°
2026-04-27 14:32 64.87567 -15.37472 32880 ft 411 kts 303°
2026-04-27 14:32 64.89408 -15.42643 32013 ft 413 kts 303°
2026-04-27 14:32 64.91223 -15.47758 31405 ft 409 kts 303°
2026-04-27 14:33 64.93033 -15.52864 30884 ft 404 kts 303°
2026-04-27 14:33 64.94829 -15.57939 30311 ft 400 kts 303°
2026-04-27 14:33 64.96604 -15.62965 29716 ft 397 kts 303°
2026-04-27 14:33 64.98364 -15.67951 29181 ft 392 kts 303°
2026-04-27 14:34 65.00100 -15.72874 28662 ft 388 kts 303°
2026-04-27 14:34 65.01819 -15.77769 28132 ft 384 kts 303°
2026-04-27 14:34 65.03514 -15.82616 27622 ft 381 kts 303°
2026-04-27 14:34 65.05191 -15.87426 27117 ft 378 kts 303°
2026-04-27 14:35 65.06858 -15.92222 26613 ft 375 kts 303°
2026-04-27 14:35 65.08511 -15.96993 26171 ft 373 kts 302°
2026-04-27 14:35 65.10158 -16.01744 25613 ft 372 kts 302°
2026-04-27 14:35 65.11792 -16.06466 25141 ft 370 kts 302°
2026-04-27 14:36 65.13427 -16.11196 24658 ft 368 kts 302°
2026-04-27 14:36 65.15048 -16.15899 24203 ft 366 kts 302°
2026-04-27 14:36 65.16652 -16.20559 23758 ft 364 kts 302°
2026-04-27 14:36 65.18251 -16.25214 23268 ft 361 kts 302°
2026-04-27 14:37 65.19829 -16.29821 22829 ft 357 kts 302°
2026-04-27 14:37 65.21383 -16.34364 22419 ft 352 kts 302°
2026-04-27 14:37 65.22918 -16.38863 22012 ft 347 kts 302°
2026-04-27 14:37 65.24430 -16.43309 21602 ft 343 kts 302°
2026-04-27 14:38 65.25927 -16.47716 21188 ft 339 kts 302°
2026-04-27 14:38 65.27407 -16.52079 20782 ft 336 kts 302°
2026-04-27 14:38 65.28871 -16.56411 20375 ft 335 kts 302°
2026-04-27 14:38 65.30324 -16.60721 19958 ft 333 kts 302°
2026-04-27 14:39 65.31754 -16.64961 19553 ft 330 kts 301°
2026-04-27 14:39 65.33210 -16.69285 19159 ft 329 kts 301°
2026-04-27 14:39 65.34623 -16.73496 18779 ft 328 kts 301°
2026-04-27 14:39 65.36052 -16.77742 18367 ft 326 kts 301°
2026-04-27 14:40 65.37475 -16.81974 17906 ft 326 kts 301°
2026-04-27 14:40 65.38894 -16.86204 17482 ft 324 kts 301°
2026-04-27 14:40 65.40302 -16.90421 17060 ft 323 kts 301°
2026-04-27 14:40 65.41698 -16.94618 16651 ft 321 kts 301°
2026-04-27 14:41 65.43089 -16.98819 16224 ft 320 kts 301°
2026-04-27 14:41 65.44473 -17.03005 15801 ft 319 kts 300°
2026-04-27 14:41 65.45850 -17.07172 15390 ft 318 kts 300°
2026-04-27 14:41 65.47225 -17.11338 14978 ft 317 kts 300°
2026-04-27 14:42 65.48592 -17.15495 14569 ft 316 kts 300°
2026-04-27 14:42 65.49965 -17.19688 14156 ft 329 kts 300°
2026-04-27 14:42 65.51417 -17.24177 13700 ft 346 kts 300°
2026-04-27 14:42 65.52905 -17.28747 13203 ft 347 kts 301°
2026-04-27 14:43 65.54397 -17.33302 12724 ft 345 kts 301°
2026-04-27 14:43 65.55885 -17.37834 12261 ft 342 kts 301°
2026-04-27 14:43 65.57355 -17.42325 11786 ft 339 kts 301°
2026-04-27 14:43 65.58807 -17.46776 11324 ft 338 kts 301°
2026-04-27 14:44 65.60254 -17.51241 10846 ft 336 kts 300°
2026-04-27 14:44 65.61685 -17.55667 10387 ft 333 kts 301°
2026-04-27 14:44 65.63114 -17.60094 10282 ft 333 kts 300°
2026-04-27 14:44 65.64539 -17.64521 10154 ft 333 kts 300°
2026-04-27 14:45 65.65961 -17.68943 10008 ft 332 kts 300°
2026-04-27 14:45 65.67363 -17.73317 9737 ft 332 kts 300°
2026-04-27 14:45 65.68788 -17.77778 9131 ft 330 kts 300°
2026-04-27 14:45 65.70152 -17.81998 8706 ft 309 kts 300°
2026-04-27 14:46 65.71459 -17.86081 7872 ft 305 kts 299°
2026-04-27 14:46 65.72744 -17.90127 7308 ft 295 kts 299°
2026-04-27 14:46 65.73955 -17.93917 7113 ft 270 kts 298°
2026-04-27 14:46 65.75199 -17.97070 7047 ft 255 kts 317°
2026-04-27 14:47 65.76865 -17.98529 6934 ft 264 kts 347°
2026-04-27 14:47 65.78737 -17.97707 6519 ft 284 kts 17°
2026-04-27 14:47 65.80593 -17.95857 6055 ft 291 kts 19°
2026-04-27 14:47 65.82517 -17.94719 5789 ft 277 kts 352°
2026-04-27 14:48 65.84267 -17.95878 5458 ft 252 kts 319°
2026-04-27 14:48 65.85921 -18.02459 4660 ft 223 kts 268°
2026-04-27 14:48 65.85746 -18.06041 4335 ft 206 kts 246°
2026-04-27 14:49 65.85078 -18.08988 4050 ft 192 kts 227°
2026-04-27 14:49 65.84091 -18.10999 3797 ft 180 kts 208°
2026-04-27 14:49 65.82941 -18.12009 3588 ft 174 kts 191°
2026-04-27 14:49 65.81747 -18.12031 3302 ft 171 kts 175°
2026-04-27 14:50 65.80597 -18.11644 3088 ft 163 kts 176°
2026-04-27 14:50 65.79489 -18.11289 2867 ft 156 kts 176°
2026-04-27 14:50 65.78448 -18.10955 2662 ft 149 kts 175°
2026-04-27 14:50 65.77429 -18.10628 2463 ft 147 kts 175°
2026-04-27 14:51 65.76414 -18.10308 2214 ft 152 kts 174°
2026-04-27 14:51 65.75358 -18.09977 1981 ft 152 kts 174°
2026-04-27 14:51 65.74320 -18.09647 1756 ft 149 kts 172°
2026-04-27 14:51 65.73634 -18.09428 1615 ft 151 kts 171°
2026-04-27 14:52 65.72322 -18.09010 1310 ft 136 kts 172°
2026-04-27 14:52 65.71394 -18.08716 1114 ft 133 kts 172°
2026-04-27 14:52 65.70482 -18.08420 906 ft 132 kts 171°
2026-04-27 14:52 65.69582 -18.08125 721 ft 129 kts 171°
2026-04-27 14:53 65.68703 -18.07842 543 ft 127 kts 171°
2026-04-27 14:53 65.67831 -18.07614 313 ft 125 kts 174°
2026-04-27 14:53 65.66963 -18.07454 111 ft 125 kts 174°
2026-04-27 14:53 65.66126 -18.07288 17 ft 111 kts 175°
2026-04-27 14:54 65.65505 -18.07180 17 ft 65 kts 177°
2026-04-27 14:54 65.65171 -18.07115 17 ft 39 kts 175°
2026-04-27 14:54 65.64934 -18.07066 20 ft 31 kts 175°
2026-04-27 14:54 65.64733 -18.07028 16 ft 27 kts 175°
2026-04-27 14:55 65.64558 -18.06996 16 ft 18 kts 176°
2026-04-27 14:55 65.64467 -18.06999 17 ft 11 kts 122°
2026-04-27 14:55 65.64521 -18.06956 18 ft 9 kts 350°
2026-04-27 14:55 65.64598 -18.06995 15 ft 16 kts 352°
2026-04-27 14:56 65.64774 -18.07035 17 ft 37 kts 355°
2026-04-27 14:56 65.65066 -18.07091 18 ft 39 kts 356°
2026-04-27 14:56 65.65305 -18.07132 15 ft 28 kts 355°
2026-04-27 14:56 65.65456 -18.07164 15 ft 13 kts 351°
2026-04-27 14:57 65.65478 -18.07315 17 ft 8 kts 266°
2026-04-27 14:57 65.65452 -18.07404 17 ft 6 kts 198°
2026-04-27 14:57 65.65438 -18.07452 17 ft 0 kts 261°
2026-04-27 14:57 65.65438 -18.07479 17 ft 2 kts 279°
2026-04-27 14:58 65.65444 -18.07483 17 ft 1 kts 340°
2026-04-27 14:58 65.65448 -18.07477 17 ft 0 kts 15°